N580JS KSMO-KHND

Flight info

Callsign N580JS
Flight time N/A
Altitude 36000
Route VALEY V165 LANGE/N0355F170 V518 PMD V12 BASAL V394 DAG/N0345F370 MISEN NTNDO1
Aircraft E50P/L-SBDFGRWY/LB2

Departure

Time 2026-05-07 20:57
Airport Santa Monica Municipal Airport (KSMO)

Arrival

Time N/A
Airport Henderson Executive Airport (KHND)
Time Latitude Longitude Altitude Speed Heading
2026-05-07 20:41 34.01400 -118.45187 125 ft 0 kts 137°
2026-05-07 20:52 34.01396 -118.45175 124 ft 3 kts 79°
2026-05-07 20:53 34.01419 -118.45141 126 ft 7 kts 47°
2026-05-07 20:53 34.01459 -118.45095 127 ft 9 kts 44°
2026-05-07 20:53 34.01512 -118.45033 126 ft 12 kts 44°
2026-05-07 20:53 34.01569 -118.44964 127 ft 8 kts 53°
2026-05-07 20:54 34.01592 -118.44929 125 ft 3 kts 358°
2026-05-07 20:54 34.01629 -118.44940 127 ft 8 kts 345°
2026-05-07 20:54 34.01671 -118.44916 126 ft 8 kts 45°
2026-05-07 20:54 34.01715 -118.44864 124 ft 10 kts 44°
2026-05-07 20:55 34.01769 -118.44800 126 ft 12 kts 44°
2026-05-07 20:55 34.01826 -118.44732 125 ft 9 kts 45°
2026-05-07 20:55 34.01865 -118.44686 125 ft 6 kts 40°
2026-05-07 20:55 34.01898 -118.44700 126 ft 6 kts 316°
2026-05-07 20:56 34.01908 -118.44741 128 ft 6 kts 256°
2026-05-07 20:56 34.01902 -118.44753 128 ft 0 kts 228°
2026-05-07 20:56 34.01831 -118.44838 125 ft 46 kts 224°
2026-05-07 20:56 34.01456 -118.45287 191 ft 95 kts 225°
2026-05-07 20:57 34.00977 -118.45839 736 ft 95 kts 222°
2026-05-07 20:57 34.00428 -118.46424 1072 ft 114 kts 225°
2026-05-07 20:57 33.99829 -118.47089 1615 ft 117 kts 224°
2026-05-07 20:57 33.99258 -118.47807 2280 ft 121 kts 225°
2026-05-07 20:58 33.98755 -118.48631 2907 ft 125 kts 257°
2026-05-07 20:58 33.99051 -118.49534 3530 ft 124 kts 328°
2026-05-07 20:58 33.99884 -118.49503 4142 ft 130 kts 30°
2026-05-07 20:58 34.00497 -118.48658 4721 ft 138 kts 46°
2026-05-07 20:59 34.01152 -118.47790 5346 ft 141 kts 44°
2026-05-07 20:59 34.01791 -118.46907 5974 ft 140 kts 47°
2026-05-07 20:59 34.02426 -118.46018 6583 ft 141 kts 46°
2026-05-07 20:59 34.03058 -118.45105 7162 ft 142 kts 47°
2026-05-07 21:00 34.03835 -118.44490 7769 ft 132 kts
2026-05-07 21:00 34.04749 -118.44574 8309 ft 133 kts 356°
2026-05-07 21:00 34.05672 -118.44504 8894 ft 132 kts
2026-05-07 21:00 34.06585 -118.44576 9485 ft 132 kts 356°
2026-05-07 21:01 34.07514 -118.44588 10031 ft 135 kts 360°
2026-05-07 21:01 34.08457 -118.44645 10552 ft 135 kts 359°
2026-05-07 21:01 34.09397 -118.44663 11055 ft 135 kts
2026-05-07 21:01 34.10344 -118.44712 11556 ft 137 kts 359°
2026-05-07 21:02 34.11305 -118.44734 12034 ft 140 kts
2026-05-07 21:02 34.12275 -118.44758 12538 ft 140 kts
2026-05-07 21:02 34.13251 -118.44798 13056 ft 142 kts
2026-05-07 21:02 34.14246 -118.44833 13565 ft 144 kts
2026-05-07 21:03 34.15253 -118.44864 14055 ft 145 kts
2026-05-07 21:03 34.16262 -118.44900 14534 ft 145 kts
2026-05-07 21:03 34.17264 -118.44932 14998 ft 147 kts
2026-05-07 21:03 34.18301 -118.44970 15477 ft 147 kts
2026-05-07 21:04 34.19313 -118.45001 15955 ft 148 kts
2026-05-07 21:04 34.20345 -118.45040 16430 ft 149 kts
2026-05-07 21:04 34.21381 -118.45070 16910 ft 149 kts
2026-05-07 21:04 34.22418 -118.45106 17413 ft 149 kts
2026-05-07 21:05 34.23458 -118.45144 17923 ft 151 kts
2026-05-07 21:05 34.24511 -118.45179 18389 ft 152 kts
2026-05-07 21:05 34.25573 -118.45252 18795 ft 153 kts
2026-05-07 21:05 34.26639 -118.45311 19209 ft 154 kts
2026-05-07 21:06 34.27711 -118.45377 19614 ft 155 kts
2026-05-07 21:06 34.28792 -118.45446 20024 ft 156 kts
2026-05-07 21:06 34.29875 -118.45512 20449 ft 156 kts
2026-05-07 21:06 34.30966 -118.45583 20853 ft 158 kts
2026-05-07 21:07 34.32066 -118.45651 21269 ft 159 kts
2026-05-07 21:07 34.33167 -118.45721 21708 ft 159 kts
2026-05-07 21:07 34.34277 -118.45792 22107 ft 161 kts
2026-05-07 21:07 34.35398 -118.45864 22534 ft 161 kts
2026-05-07 21:08 34.36519 -118.45934 22976 ft 161 kts
2026-05-07 21:08 34.37625 -118.45789 23366 ft 160 kts 20°
2026-05-07 21:08 34.38630 -118.45194 23752 ft 161 kts 34°
2026-05-07 21:08 34.39428 -118.44248 24113 ft 162 kts 52°
2026-05-07 21:09 34.40104 -118.43152 24449 ft 163 kts 50°
2026-05-07 21:09 34.40816 -118.42067 24790 ft 165 kts 51°
2026-05-07 21:09 34.41504 -118.40952 25166 ft 165 kts 51°
2026-05-07 21:09 34.42206 -118.39844 25500 ft 167 kts 51°
2026-05-07 21:10 34.42911 -118.38715 25852 ft 168 kts 51°
2026-05-07 21:10 34.43621 -118.37590 26230 ft 168 kts 51°
2026-05-07 21:10 34.44330 -118.36455 26582 ft 170 kts 50°
2026-05-07 21:10 34.45051 -118.35313 26932 ft 171 kts 51°
2026-05-07 21:11 34.45769 -118.34163 27279 ft 171 kts 50°
2026-05-07 21:11 34.46493 -118.33014 27624 ft 173 kts 50°
2026-05-07 21:11 34.47952 -118.30691 28336 ft 174 kts 49°
2026-05-07 21:12 34.48698 -118.29508 28614 ft 179 kts 50°
2026-05-07 21:12 34.49448 -118.28293 28946 ft 180 kts 50°
2026-05-07 21:12 34.50214 -118.27082 29293 ft 182 kts 50°
2026-05-07 21:12 34.50979 -118.25857 29636 ft 183 kts 50°
2026-05-07 21:13 34.51754 -118.24627 29982 ft 184 kts 50°
2026-05-07 21:13 34.52528 -118.23383 30288 ft 185 kts 50°
2026-05-07 21:13 34.53312 -118.22136 30572 ft 186 kts 50°
2026-05-07 21:13 34.54094 -118.20880 30868 ft 187 kts 50°
2026-05-07 21:14 34.54875 -118.19634 31236 ft 183 kts 50°
2026-05-07 21:14 34.55635 -118.18414 31570 ft 180 kts 50°
2026-05-07 21:14 34.56394 -118.17205 31864 ft 180 kts 50°
2026-05-07 21:14 34.57147 -118.15994 32150 ft 180 kts 50°
2026-05-07 21:15 34.57902 -118.14789 32440 ft 179 kts 50°
2026-05-07 21:15 34.58650 -118.13585 32723 ft 178 kts 50°